Regional Weather Roundup
Issued by NWS Sioux Falls, SD

Home | Current Version | Previous Version | Graphics & Text | Print | Product List | Glossary On
Versions: 1 2 3 4 5 6 7 8 9 10 11 12 13 14 15 16 17 18 19 20 21 22 23 24 25 26 27 28 29 30 31 32 33 34 35 36 37 38 39 40 41 42 43 44 45 46 47 48 49 50
414
ASUS43 KFSD 241502
RWRFSD

WEATHER ROUNDUP FOR SE SOUTH DAKOTA/SW MINNESOTA/NW IOWA
NATIONAL WEATHER SERVICE SIOUX FALLS SD
1000 AM CDT MON APR 24 2017

NOTE: "FAIR" INDICATES FEW OR NO CLOUDS BELOW 12,000 FEET WITH NO
SIGNIFICANT WEATHER AND OR OBSTRUCTIONS TO VISIBILITY.


SDZ038>040-050-052>070-241600-
SOUTHEAST SOUTH DAKOTA

CITY           SKY/WX    TMP DP  RH WIND       PRES   REMARKS
BROOKINGS      CLOUDY    55  37  50 S26G36    29.57F
CHAMBERLAIN    MOSUNNY   49  42  75 W13       29.54S
HURON          PTSUNNY   59  38  45 S23G31    29.53S
MADISON        FAIR      50  37  62 S23G30    29.58F
MITCHELL       CLOUDY    58  38  47 S16G23    29.56F
SIOUX FALLS    CLOUDY    57  39  51 S24G32    29.61F
WINNER         FAIR      48  39  71 W17       29.57R
YANKTON        CLOUDY    55  36  47 S23       29.59F
$$

MNZ071-072-080-081-089-090-097-098-241600-
SOUTHWEST MINNESOTA

CITY           SKY/WX    TMP DP  RH WIND       PRES   REMARKS
FAIRMONT       CLOUDY    60  34  37 S28G36    29.73F
JACKSON        PTSUNNY   55  32  41 S25G35    29.73S
MARSHALL       CLOUDY    58  36  43 S22G33    29.62S
MONTEVIDEO     CLOUDY    61  36  39 SW21G26   29.61F
PIPESTONE      CLOUDY    55  34  44 S25G31    29.61F
REDWOOD FALLS  CLOUDY    57  36  45 S21G30    29.67F
TRACY          CLOUDY    57  38  48 S16G25    29.64F
WINDOM         CLOUDY    57  34  41 S23G31    29.68F
WORTHINGTON    CLOUDY    58  35  42 S30G37    29.67F
$$

IAZ001>003-012>014-020>022-031-032-NEZ013-014-SDZ071-241600-
NORTHWEST IOWA

CITY           SKY/WX    TMP DP  RH WIND       PRES   REMARKS
CHEROKEE       PTSUNNY   59  33  37 S24G38    29.72F
DENISON        PTSUNNY   61  34  36 S28G39    29.74F
ESTHERVILLE    MOSUNNY   59  36  42 S30G39    29.74F
LE MARS        CLOUDY    61  36  39 S32G43    29.66F
ORANGE CITY    CLOUDY    59  37  44 S25G36    29.66F
SHELDON        PTSUNNY   59  36  41 S29G35    29.67F
SIOUX CITY     CLOUDY    60  37  42 S22G33    29.68F
SPENCER        CLOUDY    60  34  37 S30G40    29.72F
STORM LAKE     MOSUNNY   61  34  36 S35G44    29.73F
$$

ABBREVIATIONS USED IN REMARKS
   TC - TEMPERATURE IN CELSIUS
  WCI - WIND CHILL INDEX
   HX - HEAT INDEX
  VSB - VISIBILITY





USA.gov is the U.S. government's official web portal to all federal, state and local government web resources and services.